AirNav   Air Wisconsin Airman Trainee
 
 1022 users online  

95F Cleveland Municipal Airport
Cleveland, Oklahoma, USA

GOING TO CLEVELAND?


FAA INFORMATION EFFECTIVE 23 MAY 2019

Location

FAA Identifier: 95F
Lat/Long: 36-17-03.0000N / 096-27-48.0000W
36-17.050000N / 096-27.800000W
36.2841667 / -96.4633333
(estimated)
Elevation: 976 ft. / 297 m (estimated)
Variation: 06E (1985)
From city: 2 miles S of CLEVELAND, OK
Time zone: UTC -5 (UTC -6 during Standard Time)
Zip code: 74020

Airport Operations

Airport use: Open to the public
Activation date: 10/1967
Control tower: no
ARTCC: KANSAS CITY CENTER
FSS: MC ALESTER FLIGHT SERVICE STATION
NOTAMs facility: MLC (NOTAM-D service available)
Attendance: IREG
Wind indicator: yes
Segmented circle: no
Lights: ACTVT MIRL RY 18/36 - CTAF.
Beacon: white-green (lighted land airport)
Operates sunset to sunrise.

Airport Communications

CTAF: 122.9
WX AWOS-3 at OWP (16 nm SE): 118.325 (918-246-2635)

Nearby radio navigation aids

VOR radial/distance  VOR name  Freq  Var
SWOr076/30.1STILLWATER VOR/DME108.4007E
TULr271/33.1TULSA VORTAC114.4008E
BVOr205/39.4BARTLESVILLE VOR/DME117.9008E

 
NDB name  Hdg/Dist  Freq  Var  ID
WILLIAM POGUE288/16.436206EOWP --- .-- .--.
CUSHING027/28.024205ECUH -.-. ..- ....

Airport Services

Parking: hangars and tiedowns
Airframe service: MINOR
Powerplant service: MINOR
Bottled oxygen: NONE
Bulk oxygen: NONE

Runway Information

Runway 18/36

Dimensions: 4000 x 60 ft. / 1219 x 18 m
Surface: asphalt, in fair condition
Weight bearing capacity: 
Single wheel: 4.0
Runway edge lights: medium intensity
RUNWAY 18  RUNWAY 36
Latitude: 36-17.376833N36-16.723167N
Longitude: 096-27.747167W096-27.852833W
Elevation: 971.0 ft.976.0 ft.
Traffic pattern: leftleft
Runway heading: 181 magnetic, 187 true001 magnetic, 007 true
Markings: basic, in good conditionbasic, in good condition
Visual slope indicator: 2-light PAPI on left (2.75 degrees glide path)2-light PAPI on left (2.75 degrees glide path)
Obstructions: 68 ft. pline, 1408 ft. from runway, 245 ft. left of centerline, 17:1 slope to clear49 ft. trees, 894 ft. from runway, 110 ft. left and right of centerline, 14:1 slope to clear

Airport Ownership and Management from official FAA records

Ownership: Publicly-owned
Owner: CITY OF CLEVELAND
201 N. BROADWAY, P.O. DRAWER 190
CLEVELAND, OK 74020
Phone 918-358-3506
Manager: ELZIE SMITH
2789 S. AIRPORT RD., 201 N. BROADWAY
CLEVELAND, OK 74020
Phone 918-358-3506
CITY MANAGER.

Airport Operational Statistics

Aircraft based on the field: 5
Single engine airplanes: 5
    
Aircraft operations: avg 31/week *
62% local general aviation
31% transient general aviation
6% military
* for 12-month period ending 10 May 2016

Additional Remarks

GOLFERS INVOF ARPT.

Instrument Procedures

There are no published instrument procedures at 95F.

Some nearby airports with instrument procedures:

KOWP - William R Pogue Municipal Airport (16 nm SE)
KCUH - Cushing Municipal Airport (25 nm SW)
KRVS - Richard Lloyd Jones Jr Airport (27 nm SE)
KTUL - Tulsa International Airport (28 nm E)
3F7 - Jones Memorial Airport (29 nm S)
 
Loc | Ops | Rwys | IFR | FBO | Links
Com | Nav | Svcs | Stats | Notes
Area around 95F (Cleveland Municipal Airport)
 
Road maps at: MapQuest Bing Google
 
Aerial photo
No photo
 
Sectional chart

 
Airport distance calculator
Flying to Cleveland Municipal Airport? Find the distance to fly.

From to 95F

Sunrise and sunset
Times for 16-Jun-2019
 Local
(UTC-5)
 Zulu
(UTC)
Morning civil twilight05:3810:38
Sunrise06:0911:09
Sunset20:4401:44
Evening civil twilight21:1502:15

Current date and time
Zulu (UTC)  16-Jun-2019 15:52:39
Local (UTC-5)  16-Jun-2019 10:52:39
 
METAR
KOWP 
16nm SE 
161535Z AUTO 22004KT 10SM SCT021 OVC050 24/20 A2991 RMK AO2 T02370199
KCUH 
25nm SW 
161535Z AUTO 21005KT 10SM BKN011 BKN019 BKN049 21/19 A2990 RMK AO2 T02140187
KRVS 
27nm SE 
161453Z 19007KT 10SM CLR 24/18 A2988 RMK AO2 SLP122 T02390183 51003
KTUL 
29nm E 
161453Z 18008KT 10SM BKN080 BKN200 22/19 A2986 RMK AO2 SLP106 T02220189 51008
KSWO 
31nm W 
161453Z 18007KT 9SM OVC007 21/19 A2990 RMK AO2 RAB1358E07B30E44 CIG 003V012 SLP113 P0001 60001 T02060189 50013
TAF
KRVS 
27nm SE 
161131Z 1612/1712 08009KT P6SM VCSH OVC040 TEMPO 1612/1616 5SM -SHRA BKN025 FM161600 15005KT P6SM BKN050 FM170600 14005KT P6SM BKN025 PROB30 1706/1712 5SM -TSRA BKN025CB
KTUL 
29nm E 
161131Z 1612/1712 09008KT P6SM VCSH OVC040 TEMPO 1612/1616 5SM -SHRA BKN025 FM161600 15005KT P6SM BKN050 FM170600 14005KT P6SM BKN025 PROB30 1706/1712 5SM -TSRA BKN025CB
NOTAMs
Click for the latest NOTAMs
NOTAMs are issued by the DoD/FAA and will open in a separate window not controlled by AirNav.

 

 
 

Would you like to see your business listed on this page?

 If your business provides an interesting product or service to pilots, flight crews, aircraft, or users of the Cleveland Municipal Airport, you should consider listing it here.  To start the listing process, click on the button below
 
Add a business
 

Other Pages about Cleveland Municipal Airport

Update a link
 
Copyright © AirNav, LLC. All rights reserved. Privacy Policy  Contact